Location: Newark
(40.2531°N, 0.7525°W)
Time: 18:43:28
(UTC+00:00)

ISS - Visible Passes

Search period start: 20 October 2019 00:00
Search period end: 30 October 2019 00:00
Orbit: 411 x 421 km, 51.6° (Epoch: 20 October)

Date Brightness Start Highest point End Pass type
(mag) Time Alt. Az. Time Alt. Az. Time Alt. Az.
23 Oct -1.5 05:34:15 10° SSW 05:37:07 26° SE 05:40:00 10° ENE visible
24 Oct -0.8 04:46:39 10° SSE 04:48:41 15° SE 04:50:43 10° E visible
25 Oct -3.7 05:33:05 10° SW 05:36:27 79° SE 05:39:50 10° NE visible
26 Oct -2.7 04:46:39 29° S 04:47:53 42° SE 04:51:06 10° ENE visible
27 Oct -1.0 04:00:39 19° E 04:00:39 19° E 04:02:09 10° ENE visible
27 Oct -3.1 05:33:35 16° W 05:35:57 39° NNW 05:39:09 10° NE visible
28 Oct -3.7 04:47:25 64° NNW 04:47:25 64° NNW 04:50:36 10° NE visible
29 Oct -0.9 04:01:05 17° ENE 04:01:05 17° ENE 04:01:57 10° ENE visible
29 Oct -2.1 05:34:00 15° WNW 05:35:36 21° NNW 05:38:15 10° NNE visible
